Stations météo

Publicité
Marseille/Marignane, France (7650): Température de l'air & dewpoint: 07.12.2018 12:00:00 - 13.12.2018 12:00:00 (CET)Marseille/Marignane, France (7650): Température de l'air 5cm: 07.12.2018 12:00:00 - 13.12.2018 12:00:00 (CET)Marseille/Marignane, France (7650): Température de l'air -20cm & Température de l'air -100cm: 07.12.2018 12:00:00 - 13.12.2018 12:00:00 (CET)Marseille/Marignane, France (7650): Vitesse du vent & gusts: 07.12.2018 12:00:00 - 13.12.2018 12:00:00 (CET)Marseille/Marignane, France (7650): Direction du vent: 07.12.2018 12:00:00 - 13.12.2018 12:00:00 (CET)Marseille/Marignane, France (7650): reduced air pressure: 07.12.2018 12:00:00 - 13.12.2018 12:00:00 (CET)Marseille/Marignane, France (7650): visibility: 07.12.2018 12:00:00 - 13.12.2018 12:00:00 (CET)Marseille/Marignane, France (7650): Ensoleillement: 07.12.2018 12:00:00 - 13.12.2018 12:00:00 (CET)Marseille/Marignane, France (7650): Quantités de précipitations: 07.12.2018 12:00:00 - 13.12.2018 12:00:00 (CET)
Date & Time tt [°C] td [°C] tt 5cm [°C] tt -20cm [°C] tt -100cm [°C] ff [km/h] ff [knt] fx [km/h] fx [knt] dd ppp [hPa] vv [km] sd [min] rr [mm]
13.12.2018 12:00:00 9,6 5,9 7,7 6,0 14,2 22 12 41 22 E 1009,2 40 0 0,0
13.12.2018 11:00:00 8,7 6,0 6,8 5,8 14,1 18 10 31 17 E 1010,1 9 0 0,4
13.12.2018 10:00:00 9,2 5,7 6,7 5,6 14,2 12 6 27 15 ESE 1010,2 18 0 0,0
13.12.2018 09:00:00 7,6 5,1 5,2 5,5 14,2 8 4 18 10 SSE 1010,2 14 0 0,0
13.12.2018 08:00:00 7,8 5,3 2,8 5,5 14,2 8 4 14 8 ESE 1010,8 20 0 0,0
13.12.2018 07:00:00 3,8 2,8 -0,1 5,7 14,2 5 3 11 6 W 1011,4 11 0 0,0
13.12.2018 06:00:00 2,1 1,4 -1,3 5,8 14,2 5 3 8 4 SSE 1011,8 10 0 0,0
13.12.2018 05:00:00 1,3 0,0 -1,3 6,0 14,2 4 2 10 6 S 1012,3 9 0 0,0
13.12.2018 04:00:00 1,2 0,2 -1,0 6,2 14,2 9 5 14 8 SSE 1012,8 8 0 0,0
13.12.2018 03:00:00 1,3 -0,5 -1,7 6,5 14,2 3 2 13 7 S 1013,6 8 0 0,0
13.12.2018 02:00:00 1,2 0,0 -1,3 6,8 14,2 8 4 14 7 SE 1013,9 7 0 0,0
13.12.2018 01:00:00 1,8 0,3 -0,5 7,1 14,2 13 7 14 8 SE 1014,6 6 0 0,0
13.12.2018 00:00:00 4,0 2,3 0,2 7,3 14,2 10 5 18 10 NW 1015,5 10 0 0,0
12.12.2018 23:00:00 4,9 2,3 1,8 7,4 14,2 9 5 18 10 E 1015,5 9 0 0,0
12.12.2018 22:00:00 5,7 2,5 4,4 7,5 14,2 6 3 14 8 ENE 1016,1 14 0 0,0
12.12.2018 21:00:00 5,8 2,1 3,7 7,7 14,2 10 5 23 13 NW 1016,5 18 0 0,0
12.12.2018 20:00:00 5,5 2,7 3,0 7,8 14,2 11 6 16 8 W 1016,5 11 0 0,0
12.12.2018 19:00:00 7,7 2,8 6,1 7,9 14,3 11 6 20 11 E 1015,9 15 0 0,0
12.12.2018 18:00:00 7,9 1,9 6,9 7,9 14,2 6 4 19 10 NW 1016,9 18 0 0,0
12.12.2018 17:00:00 8,4 2,6 7,2 7,9 14,2 17 9 25 13 WNW 1016,8 21 0 0,0
12.12.2018 16:00:00 8,2 3,0 7,9 7,6 14,2 14 8 22 12 W 1016,9 27 34 0,0
12.12.2018 15:00:00 9,3 2,8 10,7 7,1 14,2 14 8 22 12 W 1016,7 19 51 0,0
12.12.2018 14:00:00 9,5 3,0 10,7 6,6 14,3 16 8 23 13 W 1017,3 18 50 0,0
12.12.2018 13:00:00 9,0 3,4 9,1 6,1 14,3 11 6 16 9 W 1017,8 35 36 0,0
12.12.2018 12:00:00 7,3 2,0 8,6 5,7 14,3 3 2 11 6 WSW 1018,4 26 41 0,0
12.12.2018 11:00:00 6,0 1,3 4,1 5,6 14,3 5 3 13 7 WNW 1019,3 24 36 0,0
12.12.2018 10:00:00 4,0 1,4 1,9 5,6 14,3 8 4 12 7 NW 1019,4 13 7 0,0
12.12.2018 09:00:00 2,2 0,4 -0,2 5,7 14,3 4 2 10 5 SSE 1019,2 14 23 0,0
12.12.2018 08:00:00 2,0 0,1 -1,1 5,9 14,3 5 3 10 5 SSE 1018,6 15 0 0,0
12.12.2018 07:00:00 1,7 0,1 -0,8 6,0 14,3 10 5 12 6 SE 1018,4 13 0 0,0
12.12.2018 06:00:00 1,3 0,0 -0,3 6,2 14,3 8 4 19 10 SE 1018,3 14 0 0,0
12.12.2018 05:00:00 2,0 0,7 -0,9 6,4 14,3 12 7 16 9 N 1018,9 16 0 0,0
12.12.2018 04:00:00 1,6 0,1 -0,6 6,6 14,3 5 3 8 4 SE 1019,2 13 0 0,0
12.12.2018 03:00:00 1,3 -0,2 -1,3 6,8 14,3 6 4 13 7 NNE 1019,5 13 0 0,0
12.12.2018 02:00:00 1,6 0,1 -0,6 7,1 14,3 8 4 13 7 SE 1019,3 12 0 0,0
12.12.2018 01:00:00 2,4 0,8 -0,5 7,4 14,3 3 2 10 6 SW 1019,4 13 0 0,0
12.12.2018 00:00:00 2,3 0,4 -0,1 7,7 14,3 4 2 10 5 S 1019,6 15 0 0,0
11.12.2018 23:00:00 3,3 -0,2 -0,1 8,0 14,3 5 3 13 7 NNE 1019,7 14 0 0,0
11.12.2018 22:00:00 2,9 0,5 0,3 8,3 14,3 4 2 12 6 SSE 1019,7 11 0 0,0
11.12.2018 21:00:00 4,8 1,6 1,1 8,6 14,3 6 4 11 6 SSE 1019,5 10 0 0,0
11.12.2018 20:00:00 6,3 2,6 1,5 8,9 14,3 5 3 12 7 SE 1019,2 14 0 0,0
11.12.2018 19:00:00 6,6 2,3 3,3 9,1 14,3 4 2 18 10 NE 1018,9 24 0 0,0
11.12.2018 18:00:00 8,5 2,7 6,8 9,3 14,3 12 6 42 23 NW 1018,6 54 0 0,0
11.12.2018 17:00:00 10,2 3,2 9,0 9,3 14,3 20 11 36 19 NNW 1018,5 57 27 0,0
11.12.2018 16:00:00 11,7 4,4 13,4 9,1 14,3 18 10 27 15 NNW 1018,4 34 60 0,0
11.12.2018 15:00:00 12,3 2,7 14,7 8,8 14,3 16 9 34 19 NNW 1018,5 26 60 0,0
11.12.2018 14:00:00 12,0 3,2 13,8 8,5 14,3 26 14 40 21 N 1018,9 20 60 0,0
11.12.2018 13:00:00 11,7 3,2 13,2 8,1 14,4 31 17 40 21 NNW 1019,5 24 60 0,0
11.12.2018 12:00:00 11,0 3,5 11,7 7,9 14,4 29 16 47 25 NNW 1020,0 29 60 0,0
11.12.2018 11:00:00 10,1 3,6 9,2 7,7 14,4 27 15 46 25 NNW 1020,7 37 60 0,0
11.12.2018 10:00:00 9,1 3,1 7,6 7,7 14,4 29 16 43 23 NNW 1020,6 49 38 0,0
11.12.2018 09:00:00 8,2 3,0 6,6 7,8 14,4 20 11 36 20 NNW 1020,6 35 31 0,0
11.12.2018 08:00:00 7,8 3,1 6,8 7,9 14,4 28 15 55 30 NNW 1020,5 50 0 0,0
11.12.2018 07:00:00 8,0 3,1 7,1 8,0 14,3 42 23 66 35 NW 1020,3 52 0 0,0
11.12.2018 06:00:00 8,1 3,2 7,2 8,0 14,4 45 25 68 37 NW 1020,3 49 0 0,0
11.12.2018 05:00:00 8,4 3,0 7,7 8,1 14,4 51 28 78 42 NW 1020,4 53 0 0,0
11.12.2018 04:00:00 8,5 2,7 7,6 8,2 14,4 59 32 79 42 NW 1020,6 53 0 0,0
11.12.2018 03:00:00 8,3 3,1 7,6 8,3 14,4 51 28 77 42 NW 1021,7 53 0 0,0
11.12.2018 02:00:00 8,6 2,8 7,5 8,4 14,4 55 30 74 40 NW 1021,7 53 0 0,0
11.12.2018 01:00:00 8,3 2,3 7,3 8,5 14,4 35 19 53 29 WNW 1022,6 53 0 0,0
11.12.2018 00:00:00 8,6 2,4 7,7 8,7 14,4 31 17 54 29 WNW 1023,0 55 0 0,0
10.12.2018 23:00:00 9,4 2,9 8,4 8,8 14,4 34 18 58 31 NW 1023,5 56 0 0,0
10.12.2018 22:00:00 9,5 3,0 8,6 8,9 14,4 37 20 57 31 NW 1024,1 59 0 0,0
10.12.2018 21:00:00 10,0 2,8 8,8 9,1 14,4 35 19 64 35 NW 1024,6 60 0 0,0
10.12.2018 20:00:00 10,1 2,9 9,2 9,2 14,4 41 22 64 35 NW 1024,5 60 0 0,0
10.12.2018 19:00:00 10,5 3,3 9,6 9,4 14,4 41 22 64 34 NW 1024,0 60 0 0,0
10.12.2018 18:00:00 10,9 3,4 9,9 9,5 14,4 43 23 70 38 NW 1024,1 60 0 0,0
10.12.2018 17:00:00 11,5 3,0 10,6 9,5 14,4 45 24 69 38 NW 1024,1 60 37 0,0
10.12.2018 16:00:00 12,4 3,3 12,8 9,4 14,4 50 27 81 44 NW 1024,0 13 60 0,0
10.12.2018 15:00:00 12,9 3,3 13,3 9,2 14,4 54 29 77 42 NW 1024,1 10 60 0,0
10.12.2018 14:00:00 13,1 3,5 13,3 8,9 14,4 49 26 71 39 NNW 1024,8 15 58 0,0
10.12.2018 13:00:00 13,0 3,9 13,6 8,7 14,4 47 26 75 41 NW 1025,4 17 60 0,0
10.12.2018 12:00:00 12,8 3,4 13,0 8,5 14,4 49 26 80 43 NW 1025,6 20 60 0,0
10.12.2018 11:00:00 12,3 3,8 11,5 8,3 14,4 53 29 74 40 NNW 1025,9 33 60 0,0
10.12.2018 10:00:00 11,4 3,9 9,3 8,2 14,4 48 26 64 34 NW 1025,8 51 38 0,0
10.12.2018 09:00:00 10,0 3,9 8,1 8,3 14,4 32 17 45 25 NW 1026,0 31 33 0,0
10.12.2018 08:00:00 9,3 3,5 8,0 8,4 14,4 28 15 36 19 NW 1025,7 60 0 0,0
10.12.2018 07:00:00 9,1 3,3 7,5 8,6 14,4 27 15 36 19 NW 1025,3 60 0 0,0
10.12.2018 06:00:00 8,6 3,8 7,2 8,7 14,4 21 11 31 17 NW 1025,2 60 0 0,0
10.12.2018 05:00:00 8,5 4,3 6,8 8,9 14,5 23 12 29 16 WNW 1025,2 60 0 0,0
10.12.2018 04:00:00 8,0 4,4 6,0 9,0 14,4 17 9 36 20 NW 1025,2 60 0 0,0
10.12.2018 03:00:00 9,2 5,2 7,8 9,1 14,5 31 17 42 23 WNW 1025,1 59 0 0,0
10.12.2018 02:00:00 9,7 5,5 8,6 9,2 14,4 31 17 40 22 WNW 1024,8 60 0 0,0
10.12.2018 01:00:00 10,2 5,6 8,9 9,4 14,5 30 16 38 21 W 1024,8 59 0 0,0
10.12.2018 00:00:00 10,6 4,3 8,2 9,6 14,5 16 9 29 15 NNW 1024,7 60 0 0,0
09.12.2018 23:00:00 9,8 5,6 8,0 9,7 14,5 16 9 23 13 NW 1024,0 59 0 0,0
09.12.2018 22:00:00 11,1 4,3 8,9 9,8 14,5 8 5 30 16 NW 1024,0 60 0 0,0
09.12.2018 21:00:00 11,4 6,1 10,1 10,0 14,5 27 15 49 26 WNW 1023,0 53 0 0,0
09.12.2018 20:00:00 11,6 5,9 10,0 10,1 14,5 34 18 43 23 WNW 1022,5 57 0 0,0
09.12.2018 19:00:00 11,2 5,9 9,4 10,3 14,5 20 11 34 18 NW 1021,7 40 0 0,0
09.12.2018 18:00:00 10,8 6,5 7,9 10,4 14,5 11 6 22 12 N 1021,0 45 0 0,0
09.12.2018 17:00:00 11,0 6,9 9,9 10,4 14,5 12 6 24 13 NW 1020,3 42 1 0,0
09.12.2018 16:00:00 12,5 7,2 12,4 10,1 14,5 19 11 45 24 NNW 1019,8 43 8 0,0
09.12.2018 15:00:00 15,3 8,1 14,5 9,8 14,5 38 20 58 31 WNW 1018,8 29 46 0,0
09.12.2018 14:00:00 15,5 8,5 14,7 9,4 14,5 38 21 53 29 W 1018,4 20 25 0,0
09.12.2018 13:00:00 15,2 8,9 14,5 9,0 14,5 31 17 52 28 W 1019,1 40 29 0,0
09.12.2018 12:00:00 14,6 8,3 13,3 8,6 14,5 40 22 56 30 W 1019,6 37 3 0,0
09.12.2018 11:00:00 13,7 7,9 13,5 8,3 14,5 39 21 59 32 W 1020,0 21 36 0,0
09.12.2018 10:00:00 14,5 8,7 12,5 8,1 14,5 42 23 60 33 W 1019,8 18 34 0,0
09.12.2018 09:00:00 13,3 8,4 7,8 8,1 14,5 39 21 57 31 W 1019,8 48 5 0,0
09.12.2018 08:00:00 10,7 7,0 7,5 8,1 14,5 10 5 19 11 NW 1020,0 60 0 0,0
09.12.2018 07:00:00 10,0 7,1 4,7 8,1 14,5 6 3 16 9 NW 1020,4 60 0 0,0
09.12.2018 06:00:00 9,8 7,2 7,0 8,2 14,5 11 6 18 10 N 1020,8 36 0 0,0
09.12.2018 05:00:00 7,8 6,6 3,4 8,3 14,5 4 2 15 8 S 1020,9 30 0 0,0
09.12.2018 04:00:00 6,6 4,9 3,4 8,5 14,5 5 3 11 6 E 1021,2 23 0 0,0
09.12.2018 03:00:00 5,3 3,9 3,7 8,6 14,5 4 2 10 5 S 1021,8 20 0 0,0
09.12.2018 02:00:00 6,1 3,9 4,1 8,7 14,5 4 2 12 6 NNE 1021,9 22 0 0,0
09.12.2018 01:00:00 9,3 5,8 5,5 8,9 14,5 9 5 23 13 N 1022,3 22 0 0,0
09.12.2018 00:00:00 8,5 4,9 6,0 9,1 14,5 9 5 16 9 N 1022,5 35 0 0,0
08.12.2018 23:00:00 9,1 4,5 3,5 9,3 14,5 7 4 15 8 NNW 1022,7 43 0 0,0
08.12.2018 22:00:00 8,5 3,7 4,0 9,5 14,5 5 3 26 14 N 1023,0 23 0 0,0
08.12.2018 21:00:00 9,2 5,0 6,0 9,7 14,5 13 7 17 9 NNW 1023,2 47 0 0,0
08.12.2018 20:00:00 8,6 5,0 6,0 9,9 14,5 15 8 21 11 W 1023,1 45 0 0,0
08.12.2018 19:00:00 9,9 4,3 8,3 10,1 14,5 10 6 31 17 NW 1022,9 38 0 0,0
08.12.2018 18:00:00 11,1 4,3 10,0 10,2 14,5 20 11 30 16 NW 1022,9 54 0 0,0
08.12.2018 17:00:00 12,5 3,7 11,4 10,3 14,5 23 12 37 20 NNW 1023,0 57 37 0,0
08.12.2018 16:00:00 13,4 4,3 14,2 10,1 14,5 27 15 48 26 NW 1023,2 24 60 0,0
08.12.2018 15:00:00 13,7 3,7 15,0 9,9 14,5 33 18 48 26 NW 1023,3 22 60 0,0
08.12.2018 14:00:00 13,8 4,1 14,9 9,6 14,5 32 17 46 25 WNW 1023,9 22 60 0,0
08.12.2018 13:00:00 13,4 4,0 14,1 9,3 14,5 31 17 44 24 WNW 1024,1 24 60 0,0
08.12.2018 12:00:00 12,9 2,4 13,1 9,1 14,5 31 17 50 27 NW 1024,3 27 60 0,0
08.12.2018 11:00:00 11,7 3,2 10,8 8,9 14,5 31 17 41 22 WNW 1024,7 32 60 0,0
08.12.2018 10:00:00 9,9 3,8 8,2 9,0 14,6 30 16 38 20 WNW 1024,3 20 38 0,0
08.12.2018 09:00:00 8,7 2,9 7,3 9,2 14,5 24 13 36 19 WNW 1023,9 26 34 0,0
08.12.2018 08:00:00 8,3 2,9 7,4 9,4 14,5 31 17 45 24 NW 1023,7 54 0 0,0
08.12.2018 07:00:00 8,2 2,8 7,3 9,6 14,6 34 19 42 23 WNW 1022,9 55 0 0,0
08.12.2018 06:00:00 8,4 2,6 7,5 9,8 14,5 24 13 31 17 NW 1022,0 60 0 0,0
08.12.2018 05:00:00 8,6 2,4 7,8 10,0 14,5 23 12 43 23 NW 1021,6 60 0 0,0
08.12.2018 04:00:00 9,7 3,6 8,8 10,2 14,5 32 17 45 25 WNW 1021,3 50 0 0,0
08.12.2018 03:00:00 10,3 3,1 9,1 10,5 14,6 40 21 51 28 WNW 1020,9 59 0 0,0
08.12.2018 02:00:00 10,1 3,1 9,0 10,6 14,6 26 14 55 30 WNW 1021,0 55 0 0,0
08.12.2018 01:00:00 12,0 3,7 10,9 10,8 14,6 39 21 68 37 W 1021,0 59 0 0,0
08.12.2018 00:00:00 12,4 8,1 10,5 10,9 14,6 43 23 57 31 WNW 1020,1 54 0 0,0
07.12.2018 23:00:00 12,4 8,7 10,7 11,0 14,6 28 15 36 19 W 1019,5 56 0 0,0
07.12.2018 22:00:00 11,6 8,1 10,6 11,1 14,6 15 8 20 11 WNW 1020,8 50 0 0,0
07.12.2018 21:00:00 11,7 7,4 10,8 11,2 14,6 12 6 31 17 NW 1020,9 44 0 0,0
07.12.2018 20:00:00 11,4 8,1 10,6 11,4 14,6 21 11 32 17 WNW 1020,7 51 0 0,0
07.12.2018 19:00:00 12,4 8,1 10,0 11,5 14,5 24 13 32 17 W 1020,4 55 0 0,0
07.12.2018 18:00:00 12,0 8,1 9,8 11,7 14,6 12 6 23 13 WSW 1020,5 37 0 0,0
07.12.2018 17:00:00 13,5 8,5 12,1 11,6 14,6 8 4 11 6 SW 1020,3 50 36 0,0
07.12.2018 16:00:00 15,1 9,2 17,1 11,3 14,6 5 3 10 6 S 1019,7 41 60 0,0
07.12.2018 15:00:00 15,9 9,1 19,9 10,8 14,6 3 2 6 3 S 1020,0 39 60 0,0
07.12.2018 14:00:00 14,7 9,5 17,7 10,1 14,6 3 2 9 5 W 1021,7 30 60 0,0
07.12.2018 13:00:00 13,3 9,5 16,4 9,6 14,6 3 2 11 6 NW 1022,2 19 60 0,0
07.12.2018 12:00:00 12,6 9,4 13,9 9,2 14,6 4 2 13 7 ENE 1022,5 9 60 0,0

tt = Température de l'air
td = dewpoint
tt 5cm = Température de l'air 5cm
tt -20cm = Température de l'air -20cm
tt -100cm = Température de l'air -100cm
ff = Vitesse du vent
fx = gusts
dd = Direction du vent
ppp = reduced air pressure
vv = visibility
sd = Ensoleillement
rr = Quantités de précipitations

stations d'obs. à proximité